When you browse on this site, cookies collect data to enhance your experience and personalize the content and advertising you see.
Visit our Privacy Policy to learn more. By continuing to use the site, you agree to this use of cookies and data.
  • In Czech Republic
  • List of Countries
  • For 7 days
  • Water Temperature
  • Satellite Maps
  • Weather Map
  • Weather Widgets
  • user-avatar
    Login

    Hourly Weather Uige

    Today, 17 December, Monday

    Time Temperature Precipitation Wind Pressure Humidity
    00:00 +19°C° 0.6 mm 0 mps 693 mmHg 97%
    01:00 +19°C° 0 mm 0 mps 693 mmHg 97%
    02:00 +19°C° 0.5 mm 0 mps 692 mmHg 98%
    03:00 +19°C° 0.5 mm 0 mps 692 mmHg 98%
    04:00 +19°C° 0.5 mm 0 mps 692 mmHg 98%
    05:00 +21°C° 0.2 mm 1 mps 692 mmHg 98%
    06:00 +22°C° 0.2 mm 1 mps 693 mmHg 98%
    07:00 +22°C° 0 mm 1 mps 693 mmHg 98%
    08:00 +23°C° 0.1 mm 1 mps 693 mmHg 93%
    09:00 +24°C° 0.1 mm 1 mps 693 mmHg 89%
    10:00 +25°C° 0.1 mm 1 mps 693 mmHg 84%
    11:00 +27°C° 0.5 mm 1 mps 693 mmHg 78%
    12:00 +28°C° 0.5 mm 2 mps 692 mmHg 72%
    13:00 +29°C° 0.5 mm 2 mps 692 mmHg 66%
    14:00 +29°C° 0.6 mm 2 mps 691 mmHg 71%
    15:00 +29°C° 0.6 mm 2 mps 691 mmHg 77%
    16:00 +28°C° 0.6 mm 1 mps 690 mmHg 83%
    17:00 +26°C° 1.4 mm 1 mps 691 mmHg 87%
    18:00 +25°C° 1.4 mm 1 mps 691 mmHg 91%
    19:00 +23°C° 1.4 mm 1 mps 691 mmHg 95%
    20:00 +23°C° 1.5 mm 1 mps 691 mmHg 96%
    21:00 +22°C° 1.5 mm 1 mps 692 mmHg 96%
    22:00 +22°C° 1.5 mm 1 mps 693 mmHg 97%
    23:00 +22°C° 0.7 mm 1 mps 692 mmHg 97%

    Tomorrow, 18 December, Tuesday

    Time Temperature Precipitation Wind Pressure Humidity
    00:00 +22°C° 0.7 mm 1 mps 692 mmHg 97%
    01:00 +22°C° 0.7 mm 1 mps 692 mmHg 98%
    02:00 +22°C° 0.4 mm 1 mps 692 mmHg 98%
    03:00 +22°C° 0.4 mm 1 mps 692 mmHg 98%
    04:00 +22°C° 0.4 mm 1 mps 692 mmHg 99%
    05:00 +22°C° 0.4 mm 1 mps 692 mmHg 98%
    06:00 +22°C° 0.4 mm 1 mps 693 mmHg 98%
    07:00 +22°C° 0.4 mm 1 mps 693 mmHg 98%
    08:00 +23°C° 0.4 mm 1 mps 693 mmHg 95%
    09:00 +24°C° 0.4 mm 1 mps 693 mmHg 91%
    10:00 +25°C° 0.4 mm 1 mps 694 mmHg 88%
    11:00 +25°C° 0.7 mm 1 mps 693 mmHg 86%
    12:00 +26°C° 0.7 mm 2 mps 693 mmHg 84%
    13:00 +26°C° 0.7 mm 2 mps 693 mmHg 82%
    14:00 +26°C° 1.1 mm 1 mps 692 mmHg 86%
    15:00 +25°C° 1.1 mm 1 mps 692 mmHg 90%
    16:00 +25°C° 1.1 mm 1 mps 691 mmHg 94%
    17:00 +24°C° 0.6 mm 1 mps 691 mmHg 95%
    18:00 +23°C° 0.6 mm 1 mps 691 mmHg 96%
    19:00 +22°C° 0.6 mm 1 mps 691 mmHg 97%
    20:00 +22°C° 0 mm 1 mps 692 mmHg 97%
    21:00 +22°C° 0 mm 1 mps 692 mmHg 97%
    22:00 +21°C° 0 mm 1 mps 693 mmHg 98%
    23:00 +21°C° 0 mm 1 mps 692 mmHg 98%

    Day after tomorrow, 19 December, Wednesday

    Time Temperature Precipitation Wind Pressure Humidity
    00:00 +21°C° 0 mm 1 mps 692 mmHg 98%
    01:00 +21°C° 0 mm 1 mps 691 mmHg 98%
    02:00 +21°C° 0 mm 1 mps 691 mmHg 98%
    03:00 +21°C° 0 mm 1 mps 691 mmHg 98%
    04:00 +20°C° 0 mm 1 mps 691 mmHg 98%
    05:00 +21°C° 0 mm 1 mps 691 mmHg 98%
    06:00 +21°C° 0 mm 1 mps 692 mmHg 98%
    07:00 +21°C° 0 mm 1 mps 692 mmHg 97%
    08:00 +22°C° 0 mm 1 mps 693 mmHg 93%
    09:00 +23°C° 0 mm 1 mps 693 mmHg 88%
    10:00 +24°C° 0 mm 1 mps 694 mmHg 84%
    11:00 +25°C° 0.1 mm 1 mps 693 mmHg 80%
    12:00 +26°C° 0.1 mm 1 mps 693 mmHg 76%
    13:00 +27°C° 0.1 mm 2 mps 692 mmHg 73%
    14:00 +27°C° 0.1 mm 2 mps 692 mmHg 74%
    15:00 +27°C° 0.1 mm 2 mps 691 mmHg 76%
    16:00 +26°C° 0.1 mm 2 mps 690 mmHg 78%
    17:00 +25°C° 0.1 mm 1 mps 691 mmHg 84%
    18:00 +24°C° 0.1 mm 1 mps 691 mmHg 90%
    19:00 +22°C° 0.1 mm 1 mps 691 mmHg 96%
    20:00 +22°C° 0 mm 1 mps 691 mmHg 97%
    21:00 +22°C° 0 mm 1 mps 692 mmHg 98%
    22:00 +21°C° 0 mm 1 mps 692 mmHg 98%
    23:00 +21°C° 0 mm 1 mps 692 mmHg 99%

    20 December, Thursday

    Time Temperature Precipitation Wind Pressure Humidity
    00:00 +21°C° 0 mm 1 mps 692 mmHg 99%
    01:00 +21°C° 0 mm 1 mps 691 mmHg 99%
    02:00 +21°C° 0 mm 1 mps 691 mmHg 99%
    03:00 +21°C° 0 mm 1 mps 691 mmHg 98%
    04:00 +21°C° 0 mm 1 mps 691 mmHg 98%
    05:00 +21°C° 0 mm 1 mps 691 mmHg 97%
    06:00 +22°C° 0 mm 1 mps 692 mmHg 96%
    07:00 +22°C° 0 mm 1 mps 692 mmHg 96%
    08:00 +22°C° 0.1 mm 1 mps 693 mmHg 92%
    09:00 +23°C° 0.1 mm 1 mps 693 mmHg 88%
    10:00 +24°C° 0.1 mm 1 mps 693 mmHg 85%
    11:00 +25°C° 0.1 mm 1 mps 693 mmHg 79%
    12:00 +26°C° 0.1 mm 1 mps 692 mmHg 74%
    13:00 +27°C° 0.1 mm 2 mps 692 mmHg 69%
    14:00 +27°C° 0.6 mm 1 mps 691 mmHg 77%
    15:00 +26°C° 0.6 mm 1 mps 691 mmHg 84%
    16:00 +25°C° 0.6 mm 1 mps 690 mmHg 91%
    17:00 +24°C° 0.4 mm 1 mps 691 mmHg 93%
    18:00 +23°C° 0.4 mm 1 mps 691 mmHg 95%
    19:00 +22°C° 0.4 mm 1 mps 691 mmHg 97%
    20:00 +22°C° 0 mm 1 mps 692 mmHg 97%
    21:00 +21°C° 0 mm 1 mps 692 mmHg 98%
    22:00 +19°C° 0 mm 0 mps 692 mmHg 98%
    23:00 +21°C° 0 mm 1 mps 692 mmHg 98%

    21 December, Friday

    Time Temperature Precipitation Wind Pressure Humidity
    00:00 +20°C° 0 mm 1 mps 692 mmHg 98%
    01:00 +20°C° 0 mm 1 mps 691 mmHg 98%
    02:00 +20°C° 0 mm 1 mps 691 mmHg 98%
    03:00 +20°C° 0 mm 1 mps 691 mmHg 98%
    04:00 +20°C° 0 mm 1 mps 691 mmHg 99%
    05:00 +20°C° 0 mm 1 mps 691 mmHg 98%
    06:00 +21°C° 0 mm 1 mps 692 mmHg 98%
    07:00 +20°C° 0 mm 2 mps 692 mmHg 97%
    08:00 +21°C° 0 mm 2 mps 692 mmHg 91%
    09:00 +23°C° 0 mm 2 mps 693 mmHg 85%
    10:00 +25°C° 0 mm 2 mps 693 mmHg 79%
    11:00 +25°C° 0.1 mm 2 mps 692 mmHg 76%
    12:00 +26°C° 0.1 mm 2 mps 692 mmHg 73%
    13:00 +27°C° 0.1 mm 2 mps 691 mmHg 71%
    14:00 +26°C° 0.3 mm 2 mps 690 mmHg 74%
    15:00 +26°C° 0.3 mm 2 mps 690 mmHg 78%
    16:00 +26°C° 0.3 mm 2 mps 689 mmHg 81%
    17:00 +24°C° 0.3 mm 1 mps 690 mmHg 86%
    18:00 +23°C° 0.3 mm 1 mps 690 mmHg 90%
    19:00 +22°C° 0.3 mm 1 mps 690 mmHg 95%
    20:00 +21°C° 0.2 mm 1 mps 691 mmHg 96%
    21:00 +21°C° 0.2 mm 1 mps 691 mmHg 97%
    22:00 +20°C° 0.2 mm 1 mps 692 mmHg 98%
    23:00 +20°C° 0.3 mm 1 mps 691 mmHg 98%

    22 December, Saturday

    Time Temperature Precipitation Wind Pressure Humidity
    00:00 +18°C° 0.3 mm 0 mps 691 mmHg 98%
    01:00 +18°C° 0.3 mm 0 mps 690 mmHg 98%
    02:00 +18°C° 0 mm 0 mps 690 mmHg 98%
    03:00 +18°C° 0 mm 0 mps 690 mmHg 98%
    04:00 +18°C° 0 mm 0 mps 690 mmHg 98%
    05:00 +19°C° 0 mm 0 mps 691 mmHg 97%
    06:00 +21°C° 0 mm 1 mps 691 mmHg 96%
    07:00 +21°C° 0 mm 1 mps 692 mmHg 96%
    08:00 +23°C° 0 mm 1 mps 692 mmHg 87%
    09:00 +25°C° 0 mm 1 mps 692 mmHg 78%
    10:00 +26°C° 0 mm 2 mps 692 mmHg 69%
    11:00 +27°C° 0.1 mm 2 mps 692 mmHg 67%
    12:00 +28°C° 0.1 mm 2 mps 691 mmHg 65%
    13:00 +29°C° 0.1 mm 2 mps 691 mmHg 62%
    14:00 +28°C° 0.7 mm 2 mps 690 mmHg 71%
    15:00 +27°C° 0.7 mm 2 mps 690 mmHg 79%
    16:00 +26°C° 0.7 mm 2 mps 689 mmHg 87%
    17:00 +25°C° 0.4 mm 1 mps 689 mmHg 90%
    18:00 +23°C° 0.4 mm 1 mps 689 mmHg 93%
    19:00 +22°C° 0.4 mm 1 mps 689 mmHg 96%
    20:00 +22°C° 0 mm 1 mps 690 mmHg 96%
    21:00 +19°C° 0 mm 0 mps 690 mmHg 97%
    22:00 +19°C° 0 mm 0 mps 691 mmHg 97%
    23:00 +19°C° 0 mm 0 mps 690 mmHg 97%
    Show more